CHERITA, SEDOKA AND LIMERICK

Folder Contents

Author's Full Portfolio

Title Comments Views Updated Postedsort icon
1 LIMERICKS ARE FINE 3 302 2019/10/18 1 year ago
2 DUDE (LIMERICK) 2 367 2019/10/18 1 year ago
3 LADIES GARMENTS 295 2019/10/18 1 year ago
4 MEANINGLESS JOB 348 2019/10/26 1 year ago
5 MAGICAL PILL 333 2019/10/18 1 year ago
6 BEASTLY BUT BEAUTIFUL (limerick) 566 2019/10/18 1 year ago
7 MEGAN'S GOLDEN BOOT 2 1,022 2019/10/18 1 year ago
8 LASS FROM MANHATTAN 2 352 2019/10/18 1 year ago
9 GOING TO NEW ORLEANS 421 2019/10/18 1 year ago
10 CYNICISM MET WITH SCORN 2 1,001 2019/10/18 1 year ago
11 TRUE TREASURE 2 309 2019/10/18 1 year ago
12 FALSAMUNDO! 409 2019/10/18 1 year ago
13 DRINK WITH BUKOWSKI 221 2019/10/18 1 year ago
14 BOUND & GAGGED 223 2019/10/20 1 year ago
15 BEER COASTER 288 2019/10/21 1 year ago
16 APOLITICAL CREATIVITY 2 228 2019/10/22 1 year ago
17 NEW WORLD OUT OF ORDER 231 2019/10/23 1 year ago
18 SURREAL COMEDY 251 2019/10/27 1 year ago
19 STREET LAMP GLOWING 243 2019/10/30 1 year ago
20 EXCELLENT MISERY 2 1,234 2019/10/31 1 year ago
21 ENOUGH CLICHÉ 4 1,244 2019/11/01 1 year ago
22 NORTH PHILADELPHIA STATION 2 275 2019/11/02 1 year ago
23 ENDLESS IMAGES 2 302 2019/11/03 1 year ago
24 DAMN ROOSTER 254 2019/11/03 1 year ago
25 WISE AMONG US 245 2019/11/04 1 year ago
26 SELF MADE PEDESTAL 2 411 2019/11/08 1 year ago
27 PUSSY RIOT BADGE 341 2019/11/09 1 year ago
28 HELL'S BELLS 243 2019/11/11 1 year ago
29 TREASURE CHEST 2 266 2019/11/12 1 year ago
30 MEMPHIS MINNIE 451 2019/11/13 1 year ago
31 CURRENT ORBIT 2 270 2019/11/14 1 year ago
32 FURNISHED APARTMENT 250 2019/11/17 1 year ago
33 BODY COUNT 571 2020/01/27 1 year ago
34 TRASH PICKER 243 2019/11/20 1 year ago
35 HEAD OVER HEELS 237 2019/11/21 1 year ago
36 DEMONIC SOUNDS 256 2019/11/24 1 year ago
37 NORTH STAR BAR 208 2019/11/28 1 year ago
38 MODICUM OF HOPE 260 2019/12/01 1 year ago
39 LEON TROTSKY 431 2019/12/03 1 year ago
40 BUILT IN A DAY 225 2019/12/03 1 year ago
41 URBAN BLIGHT 310 2019/12/11 1 year ago
42 VIKING NIGHT 224 2019/12/17 1 year ago
43 COOL DECEMBER AIR 228 2019/12/18 1 year ago
44 TARNISHING TUNDRA 231 2019/12/22 1 year ago
45 BYPASSING THE SCHUYLKILL 2 210 2019/12/31 1 year ago
46 SUDDENLY WORDS DON'T FLOW 241 2020/01/01 1 year ago
47 RAIN DELAY 213 2020/01/03 1 year ago
48 LATEST TREND 217 2020/01/04 1 year ago
49 AUTHOR OF THIS GRAFFITI 315 2020/01/04 1 year ago
50 FANCIED MEESELF A POET 2 227 2020/01/08 1 year ago
51 I NEED TO LEARN 5 213 2020/01/10 1 year ago
52 SINFULLY DELISH 2 566 2020/01/17 1 year ago
53 PIGEONS PLAYING CHICKEN 4 219 2020/01/17 1 year ago
54 AUBURN FOX 195 2020/01/18 1 year ago
55 JEJUNE YOUNGSTER 180 2020/01/19 1 year ago
56 A MERE DUSTING 167 2020/01/20 1 year ago
57 IGUANA RAIN 170 2020/01/22 1 year ago
58 YOU MUST BE SHROOMIN' 609 2020/01/24 1 year ago
59 VISIONARY POETS 177 2020/01/27 1 year ago
60 WRITTEN BY SCHOLARS 221 2020/01/27 1 year ago
61 ANSWERS SOUGHT 182 2020/01/29 1 year ago
62 WARNING SIGNS 2 194 2020/01/30 1 year ago
63 ENDLESSLY CASCADE 234 2020/02/01 1 year ago
64 WALTZ OVER BROKEN GLASS 192 2020/02/01 1 year ago
65 JETTISONED FROM THE PEDESTAL 2 181 2020/02/02 1 year ago
66 WROTE POEMS TO GET LAID 180 2020/02/04 1 year ago
67 LATEST, STUPID MEME 185 2020/02/04 1 year ago
68 A BLANK PAGE 2 233 2020/02/06 1 year ago
69 RAINY MORNING DAWN 4 229 2020/02/07 1 year ago
70 I WANTED TO READ WHITMAN 6 286 2020/02/08 1 year ago
71 TWISTED MUSTACHE 219 2020/02/09 1 year ago
72 ECSTATIC WORDS 2 193 2020/02/18 1 year ago
73 BILINGUAL SPLENDOR 2 236 2020/02/19 1 year ago
74 WINES OF GALAXIES 2 205 2020/02/21 1 year ago
75 CUPID RHYMES WITH STUPID 4 254 2020/02/22 1 year ago
76 CURIOUS BYSTANDER 217 2020/02/23 1 year ago
77 EMPTY POUCH 216 2020/02/26 1 year ago
78 PISS POOR COMMUNIQUÉ 4 206 2020/02/28 1 year ago
79 COMMA 152 2020/02/28 1 year ago
80 WORDS MYSTIQUE 2 193 2020/03/21 1 year ago
81 DANCE OF COYOTES 2 182 2020/03/21 1 year ago
82 DISCRIMINATORY COLORS 2 171 2020/03/22 1 year ago
83 BROKEN GLASS INFERNO 162 2020/03/22 1 year ago
84 EXORCISM OF SOUL 2 152 2020/03/23 1 year ago
85 PSALMS ORATED 2 150 2020/03/27 1 year ago
86 WILD BILL IS SHOT 162 2020/04/01 1 year ago
87 NORSE DEITIES 148 2020/04/04 1 year ago
88 CADENCE OF MOLIERÉ 159 2020/04/06 1 year ago
89 DECADENCE PERSISTS 2 153 2020/04/08 1 year ago
90 SPITTING CRISP JEWELS 591 2020/04/10 1 year ago
91 ORISON CHANTED 2 153 2020/04/11 1 year ago
92 NOW IS THE ONLY TIME 142 2020/04/13 1 year ago
93 ZODIACS OF THEORY 4 177 2020/04/15 1 year ago
94 GILDED IN GOLD 4 301 2020/04/18 1 year ago
95 SLAIN BY THE MOB 155 2020/04/19 1 year ago
96 MOUNTAIN MUD 2 161 2020/04/21 1 year ago
97 CARTWHEELING TO THE GRAVE 172 2020/04/23 1 year ago
98 WALKING THE DOG 168 2020/04/24 1 year ago
99 A ONCE RURAL ROAD 2 152 2020/04/28 1 year ago
100 ANALYST NAMED FREUD 4 251 2020/04/28 1 year ago
101 LUMINATED LAMP SHADE 166 2020/05/01 1 year ago
102 COMPLETELY ENVELOPED 2 141 2020/05/02 1 year ago
103 HUMAN AURAS 161 2020/05/02 1 year ago
104 BLIND CONFORMISTS 4 156 2020/05/03 1 year ago
105 CONTROLLED CHAOS IN MY HEART 176 2020/05/04 1 year ago
106 ALCHEMIST'S POTION 157 2020/05/05 1 year ago
107 TOO COOL MORNING 4 219 2020/05/10 1 year ago
108 OBSCENE ODES TO ISIS 2 577 2020/05/11 1 year ago
109 PECULIAR RHYTHM 139 2020/05/12 1 year ago
110 FAKE I.D. 2 220 2020/05/13 1 year ago
111 DELUSIVE GOLD CARD 1 142 2020/05/15 1 year ago
112 SIMILES OF GODDESSES 2 239 2020/05/16 1 year ago
113 WAYLAY THE NEW DAY 8 197 2020/05/17 1 year ago
114 UNOBTRUSIVE REFLEX 3 168 2020/05/17 1 year ago
115 ENDLESS UTOPIAN DREAMS 157 2020/05/19 1 year ago
116 FIRING SQUAD 2 130 2020/05/20 1 year ago
117 MY JAMAICAN FANTASY 134 2020/05/21 1 year ago
118 CAMOUFLAGE SLEEPING BAG 9 143 2020/05/24 1 year ago
119 NO-THINGNESS 4 157 2020/05/25 1 year ago
120 WOUNDS OF A TORN HEART 132 2020/05/26 1 year ago
121 SLOW TRICKLE 2 138 2020/05/30 1 year ago
122 ELASTIC FIGURINES 167 2020/05/30 1 year ago
123 FINAL FRONTIER 2 140 2020/05/31 1 year ago
124 WHIMSICAL ALARM 150 2020/06/01 1 year ago
125 CALL TO ARMS 2 141 2020/06/02 1 year ago
126 BATTERY ACID 150 2020/06/03 1 year ago
127 CONSPIRACY 2 140 2020/06/06 1 year ago
128 ELUDES THE NET 4 173 2020/06/08 1 year ago
129 STEP ABOVE 4 140 2020/06/11 1 year ago
130 INCANDESCENT RUBIES 2 150 2020/06/13 51 weeks ago
131 DEFEND THE NIGHT 137 2020/06/15 51 weeks ago
132 OF PANIC AND YEARNING 4 128 2020/07/15 47 weeks ago
133 WHO HID THE REMOTE 117 2020/07/20 46 weeks ago
134 SPLITTING AN ATOM 127 2020/07/21 46 weeks ago
135 BATTERY ON ZERO 4 139 2020/07/23 46 weeks ago
136 SPIES LIKE US 141 2020/07/23 46 weeks ago
137 7 BUCKS IT IS 2 119 2020/07/25 46 weeks ago
138 MY OWN PRIVATE MARDI GRAS 257 2020/07/29 45 weeks ago
139 IRISHED UP JAVA 2 135 2020/09/03 40 weeks ago
140 SILENCE WHISTLES 1 107 2020/09/07 39 weeks ago
141 LOMBARDI'S BLEMISH 2 139 2020/09/12 39 weeks ago
142 CRUEL JOKE 2 121 2020/09/15 38 weeks ago
143 SKA BEAT 2 119 2020/09/16 38 weeks ago
144 NAMELESS LADY 2 119 2020/09/17 38 weeks ago
145 PARADISE ALLUDED 2 121 2020/09/20 37 weeks ago
146 DANCING RAINDROPS 2 121 2020/09/21 37 weeks ago
147 TRAMPOLINE 4 388 2021/05/18 36 weeks ago
148 INDESTRUCTIBLE 131 2020/10/05 35 weeks ago
149 ROUTINE HUMDRUM 2 156 2020/10/05 35 weeks ago
150 PERFUMED SCENT 6 147 2020/10/12 34 weeks ago
151 AESTHETIC VALUES 2 184 2020/10/14 34 weeks ago
152 PERPLEXED BY CYNICISM 2 182 2020/10/16 34 weeks ago
153 JETTISON THE MILK 121 2020/10/24 33 weeks ago
154 GHOSTS POPULATE THE ATTIC 2 153 2020/10/29 32 weeks ago
155 DOMESTICATED HEADHUNTER 4 254 2020/11/16 32 weeks ago
156 SACRED COW 2 115 2020/11/02 31 weeks ago
157 UTOPIAN FANTASY 113 2020/11/03 31 weeks ago
158 COPACETIC MUSES 2 122 2020/11/10 30 weeks ago
159 WISTFUL WINKS 106 2020/11/19 29 weeks ago
160 DAMN PAPARAZZI 113 2020/11/25 28 weeks ago
161 PHILLY IN PINK HAZE 1 178 2020/11/27 28 weeks ago
162 FAKE GODS 275 2020/11/28 28 weeks ago
163 VINCENT'S LOST EAR 126 2020/12/04 27 weeks ago
164 EDDINGTON STATION 1 124 2020/12/04 27 weeks ago
165 SINISTER DIMPLES (cherita) 115 2020/12/08 26 weeks ago
166 KRAMPUS POEM 121 2020/12/14 25 weeks ago
167 I CONTAIN MULTITUDES 84 2020/12/20 24 weeks ago
168 WOKE FOLK 1 97 2020/12/24 24 weeks ago
169 ICARUS FOOLISHLY FANCIED 1 108 2020/12/27 23 weeks ago
170 SALUTING WARRIORS 173 2021/01/04 22 weeks ago
171 OVERRATED 2 123 2021/01/08 22 weeks ago
172 THOSE DECISIONS NOT SO WISE 94 2021/01/08 22 weeks ago
173 GIGGLING AT ABSURDITY 203 2021/01/23 20 weeks ago
174 HAMBURG CENTRAL STATION 2 77 2021/02/27 15 weeks ago
175 DOGGED DETERMINATION 2 108 2021/03/05 14 weeks ago
176 5 PAINFUL MINUTES 2 142 2021/03/07 13 weeks ago
177 UNKEPT PROMISES 93 2021/03/10 13 weeks ago
178 VIBES DID GATHER 73 2021/03/12 13 weeks ago
179 FOLLOWING A SHADOW 70 2021/03/14 12 weeks ago
180 OLD FASHIONED BARREL BOLT LOCK 2 129 2021/03/16 12 weeks ago
181 COMMENTARY ON THE WALL 150 2021/04/09 9 weeks ago
182 MUSHED CORN 54 2021/04/19 7 weeks ago
183 TURKEY PLAYING CHICKEN 67 2021/04/21 7 weeks ago
184 DO NOT ENTER! 45 2021/04/23 7 weeks ago
185 BURRITO IN ERASERHOOD 52 2021/04/25 6 weeks ago
186 ENDLESS UTOPIA 55 2021/04/27 6 weeks ago
187 FROM SPRING GARDEN "EL" STOP 47 2021/04/28 6 weeks ago
188 DRIFTING LOST OLD SAN JUAN 133 2021/05/10 4 weeks ago
189 TRUER WORDS 27 2021/06/06 6 days ago
190 BUKOWSKI FACE MASK 26 2021/06/09 2 days ago